Language: 


Des rapports , des résumés tant et plus, au choix de chacun....


Données Historiques de Météogheer
Journalier Rapport pour Février 4, 2018 Unitée:  Métrique    Impériale   Les deux
Suivant Jour »
Journalier Hebdomadaire Mensuel Annuel Sur mesure
  Max: Min: Moyenne:
Température: 6.2 °C 0.1 °C 2.5 °C
Point de rosée: 3.0 °C -3.0 °C -0.3 °C
Humidité: 98% 57% 81%
Vent: 38.5km/h 0.0km/h 13.6km/h
Rafales: 39.3km/h - -
Vent- - ENE
Pression: 1024.9 hPa 1008.0 hPa -
Pluie: 0.3 mm    
Historical Graphs
 
 
Données tabulaires pour Février 4, 2018
Heure Température Point de rosée Pression Vent Vent Rafales Humidité Pluie Taux (Horaire) Conditions
00:00 1.9 °C 2.0 °C 1008.0 hPa Calm   5.0 km/h 98% 0.0 mm
00:05 1.8 °C 2.0 °C 1008.0 hPa Calm     98% 0.0 mm
00:10 1.7 °C 2.0 °C 1008.0 hPa Calm   3.2 km/h 98% 0.0 mm
00:15 1.7 °C 2.0 °C 1009.0 hPa Calm   3.2 km/h 98% 0.0 mm
00:20 1.7 °C 2.0 °C 1009.0 hPa North 4.3 km/h 6.4 km/h 98% 0.0 mm
00:25 1.7 °C 2.0 °C 1009.0 hPa Calm   6.4 km/h 98% 0.0 mm
00:30 1.8 °C 2.0 °C 1009.0 hPa NNE 4.0 km/h 6.4 km/h 98% 0.0 mm
00:35 1.9 °C 2.0 °C 1009.0 hPa NE 5.0 km/h 7.9 km/h 98% 0.0 mm
00:40 2.0 °C 2.0 °C 1009.0 hPa North 4.7 km/h 9.3 km/h 98% 0.0 mm
00:45 2.0 °C 2.0 °C 1009.0 hPa North 6.1 km/h 9.3 km/h 98% 0.0 mm
00:47 2.0 °C 2.0 °C 1009.0 hPa NNE 7.6 km/h 9.3 km/h 98% 0.0 mm
00:52 2.1 °C 2.0 °C 1009.0 hPa North 6.4 km/h 7.6 km/h 98% 0.0 mm
00:57 2.1 °C 2.0 °C 1009.0 hPa North 3.2 km/h 7.6 km/h 98% 0.0 mm
01:02 2.3 °C 3.0 °C 1009.0 hPa North 7.6 km/h 7.9 km/h 98% 0.0 mm
01:07 2.4 °C 3.0 °C 1009.0 hPa Calm   11.9 km/h 98% 0.0 mm
01:12 2.6 °C 3.0 °C 1009.0 hPa Calm   11.9 km/h 98% 0.0 mm
01:17 2.6 °C 3.0 °C 1009.0 hPa NE 2.1 km/h 9.3 km/h 98% 0.0 mm
01:22 2.7 °C 3.0 °C 1009.0 hPa NW 6.4 km/h 6.9 km/h 98% 0.0 mm
01:27 2.8 °C 3.0 °C 1009.0 hPa NNE 9.3 km/h 10.1 km/h 98% 0.0 mm
01:37 2.9 °C 3.0 °C 1010.0 hPa NE 6.4 km/h 9.3 km/h 98% 0.0 mm
01:42 2.9 °C 3.0 °C 1010.0 hPa North 4.3 km/h 9.3 km/h 98% 0.0 mm
01:47 2.9 °C 3.0 °C 1010.0 hPa NNE 5.5 km/h 9.7 km/h 98% 0.0 mm
01:52 2.9 °C 3.0 °C 1010.0 hPa NNE 5.0 km/h 9.7 km/h 98% 0.0 mm
01:57 2.9 °C 3.0 °C 1010.0 hPa NNE 5.5 km/h 9.7 km/h 98% 0.0 mm
02:02 2.8 °C 3.0 °C 1010.0 hPa NE 10.1 km/h 11.9 km/h 98% 0.0 mm
02:07 2.8 °C 3.0 °C 1010.0 hPa NNE 11.9 km/h 14.0 km/h 98% 0.0 mm
02:13 2.8 °C 3.0 °C 1010.0 hPa NE 9.0 km/h 14.0 km/h 98% 0.0 mm
02:18 2.8 °C 3.0 °C 1011.1 hPa NE 10.5 km/h 13.7 km/h 98% 0.0 mm
02:23 3.0 °C 3.0 °C 1011.1 hPa NE 11.6 km/h 14.0 km/h 98% 0.0 mm
02:28 3.0 °C 3.0 °C 1011.1 hPa NE 9.3 km/h 14.0 km/h 98% 0.0 mm
02:33 3.0 °C 3.0 °C 1010.0 hPa NNE 11.9 km/h 15.4 km/h 98% 0.0 mm
02:38 3.0 °C 3.0 °C 1010.0 hPa NE 14.3 km/h 19.8 km/h 98% 0.0 mm
02:43 3.0 °C 3.0 °C 1010.0 hPa NE 16.3 km/h 19.8 km/h 98% 0.0 mm
02:48 3.0 °C 3.0 °C 1010.0 hPa NNE 10.5 km/h 19.8 km/h 98% 0.0 mm
02:53 3.0 °C 3.0 °C 1010.0 hPa NE 13.0 km/h 16.3 km/h 98% 0.3 mm
02:58 2.9 °C 3.0 °C 1010.0 hPa NE 13.0 km/h 21.2 km/h 98% 0.3 mm
03:03 2.9 °C 3.0 °C 1011.1 hPa NE 15.4 km/h 21.2 km/h 98% 0.3 mm
03:08 2.8 °C 3.0 °C 1011.1 hPa NE 12.2 km/h 22.7 km/h 98% 0.3 mm
03:13 2.8 °C 3.0 °C 1011.1 hPa NE 15.1 km/h 22.7 km/h 98% 0.3 mm
03:18 2.7 °C 3.0 °C 1011.1 hPa NE 13.0 km/h 21.6 km/h 98% 0.3 mm
03:23 2.6 °C 3.0 °C 1011.1 hPa NE 31.7 km/h 31.7 km/h 98% 0.3 mm
03:28 2.5 °C 3.0 °C 1011.1 hPa NNE 17.2 km/h 31.7 km/h 98% 0.3 mm
03:33 2.5 °C 3.0 °C 1011.1 hPa NNE 17.7 km/h 24.8 km/h 98% 0.3 mm
03:38 2.4 °C 3.0 °C 1011.1 hPa NNE 14.0 km/h 22.7 km/h 98% 0.3 mm
03:43 2.4 °C 3.0 °C 1011.1 hPa NE 14.3 km/h 22.7 km/h 98% 0.3 mm
03:48 2.3 °C 3.0 °C 1012.1 hPa NNE 24.5 km/h 24.5 km/h 98% 0.3 mm
03:53 2.3 °C 3.0 °C 1012.1 hPa NE 13.7 km/h 24.8 km/h 98% 0.0 mm
03:58 2.3 °C 3.0 °C 1012.1 hPa NNE 15.8 km/h 24.8 km/h 98% 0.0 mm
04:03 2.3 °C 3.0 °C 1013.1 hPa North 17.7 km/h 23.3 km/h 98% 0.0 mm
04:08 2.2 °C 2.0 °C 1013.1 hPa NE 14.0 km/h 25.3 km/h 98% 0.0 mm
04:13 2.1 °C 2.0 °C 1013.1 hPa NNE 24.5 km/h 27.4 km/h 97% 0.0 mm
04:18 2.1 °C 2.0 °C 1013.1 hPa ENE 16.9 km/h 27.4 km/h 96% 0.0 mm
04:23 2.1 °C 2.0 °C 1013.1 hPa NE 13.7 km/h 24.5 km/h 96% 0.0 mm
04:28 2.1 °C 2.0 °C 1012.1 hPa NE 20.9 km/h 23.0 km/h 95% 0.0 mm
04:34 2.1 °C 2.0 °C 1012.1 hPa NNE 13.0 km/h 20.9 km/h 95% 0.0 mm
04:39 2.0 °C 2.0 °C 1012.1 hPa NNE 15.8 km/h 20.9 km/h 95% 0.0 mm
04:44 2.0 °C 2.0 °C 1013.1 hPa North 13.7 km/h 16.9 km/h 95% 0.0 mm
04:49 2.0 °C 2.0 °C 1013.1 hPa NE 13.0 km/h 17.2 km/h 95% 0.0 mm
04:54 2.0 °C 2.0 °C 1013.1 hPa NE 17.2 km/h 17.2 km/h 95% 0.0 mm
04:59 1.9 °C 1.0 °C 1013.1 hPa NE 20.6 km/h 27.0 km/h 93% 0.0 mm
05:04 1.9 °C 1.0 °C 1013.1 hPa NE 16.9 km/h 28.8 km/h 91% 0.0 mm
05:09 1.9 °C 1.0 °C 1013.1 hPa NE 17.7 km/h 28.8 km/h 89% 0.0 mm
05:14 1.9 °C 0.0 °C 1014.1 hPa NE 16.3 km/h 30.6 km/h 88% 0.0 mm
05:19 1.8 °C 0.0 °C 1014.1 hPa NNE 28.5 km/h 30.6 km/h 86% 0.0 mm
05:24 1.8 °C 0.0 °C 1014.1 hPa NE 15.4 km/h 28.5 km/h 86% 0.0 mm
05:29 1.7 °C 0.0 °C 1014.1 hPa NNE 15.8 km/h 25.3 km/h 87% 0.0 mm
05:34 1.7 °C 0.0 °C 1014.1 hPa NE 16.6 km/h 24.8 km/h 87% 0.0 mm
05:39 1.7 °C 0.0 °C 1014.1 hPa NNE 16.3 km/h 24.8 km/h 87% 0.0 mm
05:44 1.7 °C 0.0 °C 1015.1 hPa NE 10.5 km/h 23.0 km/h 88% 0.0 mm
05:49 1.6 °C 0.0 °C 1015.1 hPa ENE 23.3 km/h 23.8 km/h 87% 0.0 mm
05:54 1.4 °C -1.0 °C 1015.1 hPa NE 19.5 km/h 27.0 km/h 85% 0.0 mm
05:59 1.3 °C -1.0 °C 1014.1 hPa NE 27.0 km/h 35.6 km/h 82% 0.0 mm
06:04 1.1 °C -2.0 °C 1014.1 hPa NE 20.1 km/h 36.7 km/h 79% 0.0 mm
06:09 1.0 °C -2.0 °C 1014.1 hPa NNE 16.3 km/h 36.7 km/h 81% 0.0 mm
06:14 1.0 °C -2.0 °C 1015.1 hPa NE 25.9 km/h 33.8 km/h 81% 0.0 mm
06:19 0.9 °C -2.0 °C 1015.1 hPa NE 20.1 km/h 28.0 km/h 80% 0.0 mm
06:24 0.7 °C -2.0 °C 1015.1 hPa NE 24.8 km/h 28.0 km/h 80% 0.0 mm
06:29 0.7 °C -2.0 °C 1015.1 hPa NNE 17.2 km/h 27.4 km/h 80% 0.0 mm
06:34 0.6 °C -2.0 °C 1015.1 hPa NE 16.6 km/h 28.0 km/h 80% 0.0 mm
06:39 0.5 °C -2.0 °C 1015.1 hPa NNE 20.9 km/h 28.0 km/h 81% 0.0 mm
06:45 0.4 °C -2.0 °C 1015.1 hPa NNE 16.6 km/h 22.7 km/h 80% 0.0 mm
06:50 0.4 °C -2.0 °C 1015.1 hPa NE 12.6 km/h 23.8 km/h 80% 0.0 mm
06:55 0.4 °C -2.0 °C 1015.1 hPa North 17.2 km/h 23.8 km/h 81% 0.0 mm
07:00 0.3 °C -2.0 °C 1016.1 hPa NNE 16.9 km/h 20.1 km/h 81% 0.0 mm
07:05 0.3 °C -2.0 °C 1016.1 hPa NE 12.2 km/h 23.0 km/h 81% 0.0 mm
07:10 0.3 °C -2.0 °C 1016.1 hPa NE 16.6 km/h 23.0 km/h 82% 0.0 mm
07:15 0.2 °C -2.0 °C 1016.1 hPa NNE 14.0 km/h 19.8 km/h 82% 0.0 mm
07:20 0.2 °C -2.0 °C 1016.1 hPa NE 13.7 km/h 21.2 km/h 82% 0.0 mm
07:25 0.1 °C -2.0 °C 1016.1 hPa NE 16.6 km/h 21.2 km/h 83% 0.0 mm
07:30 0.2 °C -2.0 °C 1016.8 hPa NE 11.6 km/h 23.3 km/h 83% 0.0 mm
07:35 0.1 °C -2.0 °C 1016.8 hPa NE 12.6 km/h 23.3 km/h 83% 0.0 mm
07:40 0.2 °C -2.0 °C 1016.8 hPa NE 13.7 km/h 20.1 km/h 83% 0.0 mm
07:45 0.3 °C -2.0 °C 1016.1 hPa NE 12.6 km/h 21.9 km/h 83% 0.0 mm
07:50 0.3 °C -2.0 °C 1016.1 hPa NE 15.8 km/h 23.3 km/h 83% 0.0 mm
07:55 0.4 °C -2.0 °C 1016.1 hPa NE 16.6 km/h 23.3 km/h 82% 0.0 mm
08:00 0.4 °C -2.0 °C 1016.8 hPa NE 17.7 km/h 20.6 km/h 82% 0.0 mm
08:05 0.4 °C -2.0 °C 1016.8 hPa NE 12.2 km/h 17.7 km/h 82% 0.0 mm
08:11 0.4 °C -2.0 °C 1016.8 hPa NE 8.7 km/h 14.0 km/h 82% 0.0 mm
08:16 0.3 °C -2.0 °C 1018.2 hPa NE 5.8 km/h 13.0 km/h 83% 0.0 mm
08:21 0.3 °C -2.0 °C 1018.2 hPa NNE 7.9 km/h 12.6 km/h 83% 0.0 mm
08:26 0.3 °C -2.0 °C 1018.2 hPa NE 9.0 km/h 12.6 km/h 84% 0.0 mm
08:31 0.3 °C -2.0 °C 1018.2 hPa Calm   11.6 km/h 84% 0.0 mm
08:36 0.2 °C -2.0 °C 1018.2 hPa ENE 6.1 km/h 9.0 km/h 84% 0.0 mm
08:41 0.3 °C -1.0 °C 1018.2 hPa Calm   7.9 km/h 85% 0.0 mm
08:46 0.3 °C -1.0 °C 1018.2 hPa NE 1.8 km/h 8.7 km/h 85% 0.0 mm
08:51 0.4 °C -1.0 °C 1018.2 hPa NE 7.9 km/h 8.7 km/h 87% 0.0 mm
08:56 0.4 °C -1.0 °C 1018.2 hPa NNE 8.7 km/h 10.5 km/h 87% 0.0 mm
09:01 0.5 °C -1.0 °C 1018.8 hPa NNE 7.9 km/h 11.9 km/h 87% 0.0 mm
09:06 0.6 °C -1.0 °C 1018.8 hPa NE 8.7 km/h 13.0 km/h 86% 0.0 mm
09:11 0.7 °C -1.0 °C 1018.8 hPa NNE 7.6 km/h 13.0 km/h 86% 0.0 mm
09:16 0.7 °C -1.0 °C 1018.8 hPa NE 9.7 km/h 11.6 km/h 86% 0.0 mm
09:21 0.8 °C -1.0 °C 1018.8 hPa NNE 8.7 km/h 12.2 km/h 86% 0.0 mm
09:26 0.9 °C -1.0 °C 1018.8 hPa NNE 7.6 km/h 13.0 km/h 86% 0.0 mm
09:31 0.9 °C -1.0 °C 1018.8 hPa NNE 7.9 km/h 13.0 km/h 86% 0.0 mm
09:36 1.0 °C -1.0 °C 1018.8 hPa NNE 5.8 km/h 9.3 km/h 86% 0.0 mm
09:42 1.0 °C -1.0 °C 1018.8 hPa NNE 6.9 km/h 9.7 km/h 86% 0.0 mm
09:47 1.0 °C -1.0 °C 1018.8 hPa NE 9.0 km/h 9.7 km/h 86% 0.0 mm
09:52 1.1 °C -1.0 °C 1018.8 hPa NE 13.0 km/h 13.0 km/h 86% 0.0 mm
09:57 1.2 °C -1.0 °C 1018.8 hPa NNE 12.2 km/h 14.0 km/h 85% 0.0 mm
10:02 1.3 °C -1.0 °C 1019.9 hPa NNE 10.5 km/h 14.0 km/h 85% 0.0 mm
10:07 1.3 °C -1.0 °C 1019.9 hPa NE 12.2 km/h 16.3 km/h 85% 0.0 mm
10:12 1.5 °C 0.0 °C 1019.9 hPa NE 14.0 km/h 16.9 km/h 85% 0.0 mm
10:17 1.7 °C -1.0 °C 1018.8 hPa North 11.9 km/h 16.9 km/h 84% 0.0 mm
10:22 1.9 °C 0.0 °C 1018.8 hPa NE 11.9 km/h 14.0 km/h 85% 0.0 mm
10:27 1.9 °C 0.0 °C 1018.8 hPa NE 12.2 km/h 14.0 km/h 84% 0.0 mm
10:32 2.0 °C 0.0 °C 1019.9 hPa NNE 10.8 km/h 14.8 km/h 83% 0.0 mm
10:37 2.0 °C 0.0 °C 1019.9 hPa NNE 13.7 km/h 15.4 km/h 82% 0.0 mm
10:42 2.1 °C 0.0 °C 1019.9 hPa NNE 11.9 km/h 15.4 km/h 83% 0.0 mm
10:47 2.1 °C 0.0 °C 1020.9 hPa NNE 11.9 km/h 16.6 km/h 82% 0.0 mm
10:52 2.3 °C 0.0 °C 1020.9 hPa NE 12.2 km/h 16.6 km/h 81% 0.0 mm
10:57 2.4 °C 0.0 °C 1020.9 hPa NNE 12.2 km/h 17.2 km/h 80% 0.0 mm
11:02 2.6 °C -1.0 °C 1019.9 hPa North 9.7 km/h 17.2 km/h 78% 0.0 mm
11:07 2.8 °C 0.0 °C 1019.9 hPa NE 11.9 km/h 15.8 km/h 78% 0.0 mm
11:12 2.8 °C 0.0 °C 1019.9 hPa NE 8.7 km/h 14.0 km/h 77% 0.0 mm
11:17 3.2 °C 0.0 °C 1020.9 hPa NNE 6.9 km/h 13.0 km/h 78% 0.0 mm
11:22 3.6 °C 0.0 °C 1020.9 hPa NE 6.4 km/h 13.7 km/h 76% 0.0 mm
11:27 3.8 °C 0.0 °C 1020.9 hPa ENE 13.7 km/h 13.7 km/h 76% 0.0 mm
11:32 3.8 °C -1.0 °C 1020.9 hPa ENE 12.6 km/h 17.2 km/h 72% 0.0 mm
11:37 4.0 °C 0.0 °C 1020.9 hPa NE 12.6 km/h 17.2 km/h 72% 0.0 mm
11:42 4.1 °C -1.0 °C 1020.9 hPa ENE 12.2 km/h 17.7 km/h 71% 0.0 mm
11:47 4.4 °C 0.0 °C 1020.9 hPa NE 13.0 km/h 17.7 km/h 71% 0.0 mm
11:52 4.4 °C -1.0 °C 1020.9 hPa NNE 13.7 km/h 20.9 km/h 69% 0.0 mm
11:57 4.5 °C -1.0 °C 1020.9 hPa NNE 16.3 km/h 20.9 km/h 67% 0.0 mm
12:03 4.5 °C -1.0 °C 1020.9 hPa NE 14.8 km/h 23.8 km/h 66% 0.0 mm
12:08 4.7 °C -1.0 °C 1020.9 hPa NNE 13.7 km/h 23.8 km/h 68% 0.0 mm
12:13 4.7 °C -1.0 °C 1020.9 hPa ENE 16.9 km/h 23.3 km/h 66% 0.0 mm
12:18 4.8 °C -1.0 °C 1020.9 hPa North 17.7 km/h 23.3 km/h 67% 0.0 mm
12:23 4.9 °C -1.0 °C 1020.9 hPa NE 12.6 km/h 21.6 km/h 65% 0.0 mm
12:28 5.0 °C -1.0 °C 1020.9 hPa ENE 17.2 km/h 20.1 km/h 65% 0.0 mm
12:33 5.1 °C -1.0 °C 1020.9 hPa NE 9.3 km/h 19.5 km/h 66% 0.0 mm
12:38 5.2 °C -1.0 °C 1020.9 hPa NE 16.6 km/h 31.4 km/h 63% 0.0 mm
12:43 5.3 °C -1.0 °C 1020.9 hPa NNE 19.8 km/h 31.4 km/h 62% 0.0 mm
12:48 5.7 °C -1.0 °C 1020.9 hPa North 16.6 km/h 27.7 km/h 63% 0.0 mm
12:53 5.8 °C -1.0 °C 1020.9 hPa NE 20.1 km/h 28.5 km/h 61% 0.0 mm
12:58 5.6 °C -1.0 °C 1020.9 hPa NE 20.6 km/h 28.5 km/h 62% 0.0 mm
13:03 5.5 °C -1.0 °C 1021.9 hPa ENE 24.8 km/h 27.7 km/h 62% 0.0 mm
13:08 5.7 °C -1.0 °C 1021.9 hPa NNE 27.7 km/h 27.7 km/h 61% 0.0 mm
13:13 5.8 °C -1.0 °C 1021.9 hPa NE 20.1 km/h 28.0 km/h 60% 0.0 mm
13:18 6.0 °C -1.0 °C 1020.9 hPa NNE 13.0 km/h 28.0 km/h 59% 0.0 mm
13:23 6.0 °C -1.0 °C 1020.9 hPa NE 20.9 km/h 27.7 km/h 59% 0.0 mm
13:28 6.2 °C -1.0 °C 1020.9 hPa NE 19.8 km/h 27.7 km/h 58% 0.0 mm
13:33 6.0 °C -1.0 °C 1020.9 hPa NNE 27.7 km/h 27.7 km/h 59% 0.0 mm
13:38 5.6 °C -1.0 °C 1020.9 hPa NE 14.0 km/h 28.5 km/h 59% 0.0 mm
13:43 5.4 °C -1.0 °C 1020.9 hPa NNE 22.4 km/h 28.5 km/h 60% 0.0 mm
13:48 5.7 °C -1.0 °C 1020.9 hPa NE 17.7 km/h 25.6 km/h 63% 0.0 mm
13:53 6.2 °C 0.0 °C 1020.9 hPa NE 17.7 km/h 23.0 km/h 64% 0.0 mm
13:58 6.0 °C -1.0 °C 1020.9 hPa NNW 16.3 km/h 20.9 km/h 62% 0.0 mm
14:03 5.7 °C -1.0 °C 1020.9 hPa NNE 20.9 km/h 25.3 km/h 62% 0.0 mm
14:08 5.6 °C 0.0 °C 1020.9 hPa NNE 19.8 km/h 25.3 km/h 65% 0.0 mm
14:13 5.3 °C -1.0 °C 1020.9 hPa NE 14.0 km/h 35.2 km/h 63% 0.0 mm
14:18 5.3 °C 0.0 °C 1020.9 hPa NE 32.3 km/h 35.2 km/h 65% 0.0 mm
14:23 5.7 °C 1.0 °C 1020.9 hPa NNE 30.9 km/h 33.8 km/h 69% 0.0 mm
14:29 5.4 °C 0.0 °C 1020.9 hPa NNE 20.9 km/h 32.0 km/h 69% 0.0 mm
14:34 5.5 °C 0.0 °C 1020.9 hPa NE 16.6 km/h 32.0 km/h 67% 0.0 mm
14:39 5.6 °C 0.0 °C 1020.9 hPa NNE 13.0 km/h 30.6 km/h 67% 0.0 mm
14:44 5.3 °C 0.0 °C 1020.9 hPa NE 38.5 km/h 38.5 km/h 68% 0.0 mm
14:49 5.1 °C 0.0 °C 1020.9 hPa North 31.7 km/h 38.5 km/h 68% 0.0 mm
14:54 5.0 °C -1.0 °C 1020.9 hPa NE 31.7 km/h 39.3 km/h 66% 0.0 mm
14:59 5.6 °C 1.0 °C 1020.9 hPa North 24.8 km/h 39.3 km/h 69% 0.0 mm
15:04 5.6 °C 0.0 °C 1020.9 hPa NNE 33.5 km/h 33.5 km/h 64% 0.0 mm
15:09 5.2 °C 0.0 °C 1020.9 hPa NNE 22.4 km/h 34.3 km/h 67% 0.0 mm
15:14 5.0 °C -1.0 °C 1020.9 hPa NNE 28.5 km/h 35.6 km/h 65% 0.0 mm
15:19 4.7 °C -1.0 °C 1020.9 hPa NNE 27.4 km/h 36.4 km/h 65% 0.0 mm
15:24 5.2 °C -1.0 °C 1020.9 hPa NE 37.0 km/h 37.0 km/h 65% 0.0 mm
15:29 5.3 °C -2.0 °C 1020.9 hPa NE 27.7 km/h 37.0 km/h 59% 0.0 mm
15:34 5.1 °C -2.0 °C 1020.9 hPa North 28.5 km/h 32.0 km/h 58% 0.0 mm
15:39 5.3 °C -1.0 °C 1020.9 hPa NE 14.0 km/h 32.0 km/h 61% 0.0 mm
15:44 5.3 °C -2.0 °C 1019.9 hPa NNE 20.1 km/h 32.0 km/h 58% 0.0 mm
15:49 5.3 °C -2.0 °C 1019.9 hPa NE 25.3 km/h 31.7 km/h 59% 0.0 mm
15:54 4.8 °C -3.0 °C 1019.9 hPa NE 28.0 km/h 39.3 km/h 58% 0.0 mm
15:59 4.5 °C -3.0 °C 1019.9 hPa NNE 36.7 km/h 39.3 km/h 57% 0.0 mm
16:04 4.4 °C -3.0 °C 1019.9 hPa NE 24.5 km/h 36.7 km/h 60% 0.0 mm
16:09 4.5 °C -2.0 °C 1019.9 hPa NE 24.8 km/h 30.2 km/h 61% 0.0 mm
16:14 4.5 °C -3.0 °C 1021.9 hPa NNE 20.1 km/h 32.0 km/h 59% 0.0 mm
16:20 4.3 °C -3.0 °C 1021.9 hPa North 21.2 km/h 32.8 km/h 58% 0.0 mm
16:25 4.3 °C -3.0 °C 1021.9 hPa NE 17.7 km/h 32.8 km/h 61% 0.0 mm
16:30 4.1 °C -3.0 °C 1021.9 hPa NE 28.8 km/h 31.7 km/h 62% 0.0 mm
16:35 4.0 °C -3.0 °C 1021.9 hPa NE 17.7 km/h 34.3 km/h 62% 0.0 mm
16:40 3.9 °C -2.0 °C 1021.9 hPa ENE 15.1 km/h 34.3 km/h 63% 0.0 mm
16:45 3.8 °C -3.0 °C 1021.9 hPa NE 24.5 km/h 30.6 km/h 62% 0.0 mm
16:50 3.7 °C -3.0 °C 1021.9 hPa NE 23.0 km/h 28.5 km/h 62% 0.0 mm
16:55 3.6 °C -3.0 °C 1021.9 hPa ENE 24.8 km/h 27.7 km/h 62% 0.0 mm
17:00 3.4 °C -3.0 °C 1021.9 hPa North 17.2 km/h 27.7 km/h 64% 0.0 mm
17:05 3.3 °C -3.0 °C 1021.9 hPa ENE 14.0 km/h 25.9 km/h 63% 0.0 mm
17:10 3.2 °C -3.0 °C 1021.9 hPa NE 20.9 km/h 32.0 km/h 63% 0.0 mm
17:15 3.1 °C -3.0 °C 1021.9 hPa ENE 16.6 km/h 32.0 km/h 65% 0.0 mm
17:20 3.1 °C -3.0 °C 1021.9 hPa NE 23.0 km/h 28.0 km/h 65% 0.0 mm
17:25 3.0 °C -3.0 °C 1021.9 hPa NE 16.6 km/h 25.3 km/h 65% 0.0 mm
17:30 2.8 °C -2.0 °C 1022.9 hPa NE 19.8 km/h 23.3 km/h 67% 0.0 mm
17:35 2.8 °C -3.0 °C 1022.9 hPa NE 19.1 km/h 24.8 km/h 66% 0.0 mm
17:40 2.7 °C -3.0 °C 1022.9 hPa NNE 19.8 km/h 24.8 km/h 67% 0.0 mm
17:45 2.6 °C -3.0 °C 1022.9 hPa NE 20.9 km/h 24.8 km/h 67% 0.0 mm
17:50 2.6 °C -2.0 °C 1022.9 hPa NE 18.3 km/h 24.8 km/h 68% 0.0 mm
17:55 2.6 °C -2.0 °C 1022.9 hPa NE 13.7 km/h 23.8 km/h 68% 0.0 mm
18:00 2.6 °C -2.0 °C 1022.9 hPa NE 16.9 km/h 27.7 km/h 68% 0.0 mm
18:05 2.6 °C -2.0 °C 1022.9 hPa NE 15.1 km/h 27.7 km/h 69% 0.0 mm
18:11 2.6 °C -2.0 °C 1022.9 hPa NE 14.8 km/h 21.2 km/h 69% 0.0 mm
18:16 2.6 °C -2.0 °C 1022.9 hPa NNE 13.0 km/h 19.1 km/h 69% 0.0 mm
18:21 2.6 °C -2.0 °C 1022.9 hPa NE 13.0 km/h 20.9 km/h 69% 0.0 mm
18:26 2.5 °C -2.0 °C 1022.9 hPa NE 12.6 km/h 20.9 km/h 69% 0.0 mm
18:31 2.4 °C -2.0 °C 1021.9 hPa NNE 14.0 km/h 16.6 km/h 70% 0.0 mm
18:36 2.2 °C -2.0 °C 1021.9 hPa NE 10.5 km/h 14.0 km/h 71% 0.0 mm
18:41 2.1 °C -2.0 °C 1021.9 hPa NE 10.8 km/h 14.0 km/h 71% 0.0 mm
18:46 2.1 °C -2.0 °C 1022.9 hPa NE 9.3 km/h 14.0 km/h 72% 0.0 mm
18:51 2.0 °C -2.0 °C 1022.9 hPa NNE 12.6 km/h 14.0 km/h 72% 0.0 mm
18:56 1.9 °C -2.0 °C 1022.9 hPa NE 12.6 km/h 13.7 km/h 74% 0.0 mm
19:01 2.0 °C -2.0 °C 1022.9 hPa NE 11.9 km/h 14.3 km/h 74% 0.0 mm
19:06 2.1 °C -2.0 °C 1022.9 hPa NNE 13.7 km/h 14.3 km/h 74% 0.0 mm
19:11 2.1 °C -2.0 °C 1022.9 hPa NNE 12.6 km/h 14.8 km/h 74% 0.0 mm
19:16 2.0 °C -2.0 °C 1022.9 hPa NE 13.7 km/h 14.8 km/h 74% 0.0 mm
19:21 2.0 °C -1.0 °C 1022.9 hPa NE 13.0 km/h 14.0 km/h 75% 0.0 mm
19:26 1.7 °C -2.0 °C 1022.9 hPa NE 10.1 km/h 14.0 km/h 76% 0.0 mm
19:31 1.7 °C -2.0 °C 1023.9 hPa NE 9.0 km/h 13.7 km/h 76% 0.0 mm
19:36 1.6 °C -2.0 °C 1023.9 hPa NNE 6.4 km/h 11.9 km/h 77% 0.0 mm
19:41 1.6 °C -2.0 °C 1023.9 hPa NE 3.2 km/h 11.9 km/h 77% 0.0 mm
19:46 1.2 °C -2.0 °C 1023.9 hPa NNE 9.0 km/h 9.3 km/h 78% 0.0 mm
19:51 1.1 °C -2.0 °C 1023.9 hPa NNE 10.1 km/h 10.1 km/h 79% 0.0 mm
19:56 1.0 °C -2.0 °C 1023.9 hPa NNE 5.8 km/h 10.5 km/h 79% 0.0 mm
20:01 1.0 °C -2.0 °C 1024.9 hPa NE 6.9 km/h 10.5 km/h 80% 0.0 mm
20:06 1.0 °C -2.0 °C 1024.9 hPa NNE 4.7 km/h 9.7 km/h 81% 0.0 mm
20:11 1.0 °C -2.0 °C 1024.9 hPa NNE 5.8 km/h 9.7 km/h 81% 0.0 mm
20:17 1.1 °C -1.0 °C 1023.9 hPa NNE 5.8 km/h 9.0 km/h 82% 0.0 mm
20:22 1.1 °C -1.0 °C 1023.9 hPa NNE 1.4 km/h 9.0 km/h 82% 0.0 mm
20:26 1.1 °C -1.0 °C 1023.9 hPa NNE 5.5 km/h 6.9 km/h 82% 0.0 mm
20:32 1.1 °C -1.0 °C 1024.9 hPa NE 5.8 km/h 6.9 km/h 82% 0.0 mm
20:37 1.1 °C -1.0 °C 1024.9 hPa NNE 6.1 km/h 9.3 km/h 82% 0.0 mm
20:42 1.1 °C -1.0 °C 1024.9 hPa NE 5.5 km/h 9.7 km/h 82% 0.0 mm
20:47 1.1 °C -1.0 °C 1024.9 hPa NNE 5.5 km/h 9.7 km/h 82% 0.0 mm
20:52 1.1 °C -1.0 °C 1024.9 hPa NE 2.6 km/h 7.6 km/h 82% 0.0 mm
20:57 1.1 °C -1.0 °C 1024.9 hPa NNW 6.1 km/h 6.9 km/h 82% 0.0 mm
21:02 1.1 °C -1.0 °C 1024.9 hPa NE 6.4 km/h 6.9 km/h 82% 0.0 mm
21:07 1.1 °C -1.0 °C 1024.9 hPa NNE 5.5 km/h 6.9 km/h 82% 0.0 mm
21:12 1.0 °C -1.0 °C 1024.9 hPa NNW 2.1 km/h 6.1 km/h 82% 0.0 mm
21:17 1.0 °C -1.0 °C 1024.9 hPa NE 3.5 km/h 6.9 km/h 82% 0.0 mm
21:22 1.0 °C -1.0 °C 1024.9 hPa NNE 1.8 km/h 6.9 km/h 82% 0.0 mm
21:27 1.0 °C -1.0 °C 1024.9 hPa North 9.0 km/h 9.0 km/h 82% 0.0 mm
21:32 1.2 °C -1.0 °C 1024.9 hPa NNW 6.4 km/h 9.0 km/h 84% 0.0 mm
21:37 1.2 °C -1.0 °C 1024.9 hPa NNE 2.1 km/h 9.3 km/h 84% 0.0 mm
21:42 1.2 °C -1.0 °C 1024.9 hPa North 5.0 km/h 9.3 km/h 84% 0.0 mm
21:47 1.3 °C -1.0 °C 1024.9 hPa Calm   9.0 km/h 84% 0.0 mm
21:53 1.3 °C -1.0 °C 1024.9 hPa NNE 6.4 km/h 9.0 km/h 84% 0.0 mm
21:58 1.3 °C -1.0 °C 1024.9 hPa NE 6.4 km/h 10.1 km/h 84% 0.0 mm
22:03 1.6 °C 0.0 °C 1024.9 hPa NNE 7.9 km/h 10.5 km/h 86% 0.0 mm
22:08 1.6 °C 0.0 °C 1024.9 hPa NE 4.0 km/h 10.5 km/h 86% 0.0 mm
22:13 1.6 °C 0.0 °C 1024.9 hPa NE 12.6 km/h 12.6 km/h 86% 0.0 mm
22:18 1.6 °C 0.0 °C 1024.9 hPa NE 9.0 km/h 12.6 km/h 86% 0.0 mm
22:23 1.6 °C 0.0 °C 1024.9 hPa North 8.7 km/h 13.0 km/h 86% 0.0 mm
22:28 1.6 °C 0.0 °C 1024.9 hPa North 9.7 km/h 13.0 km/h 86% 0.0 mm
22:33 1.9 °C 0.0 °C 1024.9 hPa NNE 11.1 km/h 13.7 km/h 88% 0.0 mm
22:38 1.9 °C 0.0 °C 1024.9 hPa NE 6.4 km/h 13.7 km/h 88% 0.0 mm
22:43 1.9 °C 0.0 °C 1024.9 hPa ENE 9.7 km/h 16.3 km/h 88% 0.0 mm
22:48 1.9 °C 0.0 °C 1023.9 hPa NE 14.0 km/h 16.3 km/h 88% 0.0 mm
22:53 2.1 °C 1.0 °C 1023.9 hPa NE 16.3 km/h 19.1 km/h 90% 0.0 mm
22:58 2.2 °C 1.0 °C 1023.9 hPa NNE 14.0 km/h 19.1 km/h 90% 0.0 mm
23:03 2.2 °C 1.0 °C 1023.9 hPa ENE 14.0 km/h 17.7 km/h 90% 0.0 mm
23:08 2.3 °C 1.0 °C 1023.9 hPa ENE 14.0 km/h 21.6 km/h 90% 0.0 mm
23:13 2.3 °C 1.0 °C 1023.9 hPa NE 10.5 km/h 21.6 km/h 90% 0.0 mm
23:19 2.3 °C 1.0 °C 1023.9 hPa East 11.6 km/h 14.0 km/h 90% 0.0 mm
23:24 2.3 °C 1.0 °C 1023.9 hPa ENE 10.1 km/h 13.0 km/h 90% 0.0 mm
23:29 2.3 °C 1.0 °C 1023.9 hPa NE 8.7 km/h 11.9 km/h 90% 0.0 mm
23:34 2.3 °C 1.0 °C 1023.9 hPa East 8.7 km/h 13.7 km/h 90% 0.0 mm
23:39 2.3 °C 1.0 °C 1023.9 hPa ENE 5.8 km/h 13.7 km/h 90% 0.0 mm
23:44 2.3 °C 1.0 °C 1023.9 hPa ENE 8.7 km/h 11.6 km/h 90% 0.0 mm
23:49 2.3 °C 1.0 °C 1023.9 hPa NE 7.6 km/h 11.6 km/h 90% 0.0 mm
23:54 2.3 °C 1.0 °C 1023.9 hPa East 8.7 km/h 13.0 km/h 90% 0.0 mm
23:59 2.3 °C 1.0 °C 1024.9 hPa NE 13.7 km/h 13.7 km/h 90% 0.0 mm
Données Historique de Météo Turbie

Mise a jour : 26/05/2018 15:46:12
Généré par Cumulus 1.9.4 (1099)